EW9135 Weather Reports


time (UTC)temp
C
wind
direction
speed
KPH
gust
KPH
rain 1hr
cm
rain 24hr
cm
rain mn
cm
humidity
%
barometer
mb
20260831170324 18 316 0.0 1.6 0.00 0.03 0.03 32 1019.7
20260831170318 18 204 0.0 1.6 0.00 0.03 0.03 32 1019.7
20260831165312 18 231 0.0 1.6 0.00 0.03 0.03 32 1019.7
20260831164806 18 229 0.0 3.2 0.00 0.03 0.03 32 1019.7
20260831164757 17 243 0.0 1.6 0.00 0.03 0.03 32 1019.7
20260831164401 18 344 0.0 3.2 0.00 0.03 0.03 32 1019.7
20260831163252 17 215 0.0 0.0 0.00 0.03 0.03 32 1019.7
20260831162744 17 341 0.0 0.0 0.00 0.03 0.03 32 1019.7
20260831162240 17 243 0.0 1.6 0.00 0.03 0.03 32 1019.4
20260831161733 17 286 0.0 1.6 0.00 0.03 0.03 32 1019.4
20260831161227 17 272 0.0 1.6 0.00 0.03 0.03 32 1019.4
20260831160722 16 248 0.0 1.6 0.00 0.03 0.03 30 1019.4
20260831160217 16 217 0.0 0.0 0.00 0.03 0.03 31 1019.4
20260831160211 16 255 0.0 1.6 0.00 0.03 0.03 31 1019.4
20260831155206 16 187 0.0 1.6 0.00 0.03 0.03 31 1019.4
20260831154700 16 233 0.0 1.6 0.00 0.03 0.03 31 1019.4
20260831154155 16 223 0.0 1.6 0.00 0.03 0.03 32 1019.4
20260831153649 16 251 0.0 0.0 0.00 0.03 0.03 32 1019.4
20260831153144 16 317 0.0 0.0 0.00 0.03 0.03 32 1019.1
20260831153135 16 210 0.0 0.0 0.00 0.03 0.03 32 1019.4
20260831152738 16 280 0.0 0.0 0.00 0.03 0.03 32 1019.1
20260831151628 16 196 0.0 0.0 0.00 0.03 0.03 32 1019.4
20260831151622 16 269 0.0 0.0 0.00 0.03 0.03 32 1019.1
20260831150616 16 278 0.0 0.0 0.00 0.03 0.03 33 1019.1
20260831150110 16 280 0.0 0.0 0.00 0.03 0.03 33 1019.4
20260831145606 16 293 0.0 0.0 0.00 0.03 0.03 33 1019.1
20260831145601 16 238 0.0 0.0 0.00 0.03 0.03 33 1019.1
20260831144554 16 155 0.0 1.6 0.00 0.03 0.03 34 1019.1
20260831144048 16 229 0.0 1.6 0.00 0.03 0.03 33 1019.1
20260831143542 16 286 0.0 1.6 0.00 0.03 0.03 33 1018.7
20260831143038 16 207 0.0 1.6 0.00 0.03 0.03 35 1019.1
20260831142532 16 210 0.0 1.6 0.00 0.03 0.03 35 1018.7
20260831142026 16 310 0.0 0.0 0.00 0.03 0.03 35 1018.7
20260831141520 16 314 0.0 1.6 0.00 0.03 0.03 35 1018.7
20260831141015 16 225 0.0 1.6 0.00 0.03 0.03 35 1018.7
20260831140510 16 189 0.0 0.0 0.00 0.03 0.03 35 1018.7
20260831140505 16 273 0.0 0.0 0.00 0.03 0.03 35 1018.4
20260831135459 16 285 0.0 1.6 0.00 0.03 0.03 35 1018.4
20260831134953 16 204 0.0 1.6 0.00 0.03 0.03 34 1018.4
20260831134448 16 205 0.0 0.0 0.00 0.03 0.03 34 1018.4
20260831133942 16 250 0.0 0.0 0.00 0.03 0.03 33 1018.0
20260831133436 16 251 0.0 0.0 0.00 0.03 0.03 33 1018.4
20260831132931 16 241 0.0 0.0 0.00 0.03 0.03 33 1018.0
20260831132425 16 203 0.0 0.0 0.00 0.03 0.03 34 1018.0
20260831131920 16 234 0.0 0.0 0.00 0.03 0.03 34 1018.0
20260831131414 16 222 0.0 0.0 0.00 0.03 0.03 34 1018.0
20260831130908 16 248 0.0 0.0 0.00 0.03 0.03 33 1018.0
20260831130406 16 245 0.0 1.6 0.00 0.03 0.03 33 1018.0
20260831130359 16 289 0.0 1.6 0.00 0.03 0.03 33 1018.0
20260831125352 16 175 0.0 0.0 0.00 0.03 0.03 33 1017.7
20260831124846 16 197 0.0 0.0 0.00 0.03 0.03 33 1018.0
20260831124841 16 198 0.0 0.0 0.00 0.03 0.03 33 1018.0
20260831123836 16 233 0.0 0.0 0.00 0.03 0.03 33 1017.7
20260831123330 16 255 0.0 0.0 0.00 0.03 0.03 33 1018.0
20260831122920 15 196 0.0 1.6 0.00 0.03 0.03 33 1018.0
20260831122824 16 218 0.0 0.0 0.00 0.03 0.03 33 1017.7
20260831122816 15 242 0.0 1.6 0.00 0.03 0.03 33 1017.7
20260831121308 15 164 0.0 0.0 0.00 0.03 0.03 33 1018.0
20260831120802 15 181 0.0 0.0 0.00 0.03 0.03 33 1017.7
20260831120258 14 210 0.0 0.0 0.00 0.03 0.03 33 1017.7
20260831120252 14 276 0.0 0.0 0.00 0.03 0.03 39 1017.7
20260831115247 14 324 0.0 0.0 0.00 0.03 0.03 41 1017.4
20260831114740 14 291 0.0 0.0 0.00 0.03 0.03 41 1017.7
20260831114234 14 214 0.0 0.0 0.00 0.03 0.03 41 1017.7
20260831113729 14 210 0.0 0.0 0.00 0.03 0.03 41 1017.7
20260831113223 14 210 0.0 0.0 0.00 0.03 0.03 41 1017.7
20260831112718 14 239 0.0 0.0 0.00 0.03 0.03 41 1017.7
20260831112213 14 189 0.0 0.0 0.00 0.03 0.03 41 1017.7
20260831111707 14 189 0.0 0.0 0.00 0.03 0.03 41 1017.4
20260831111201 14 222 0.0 0.0 0.00 0.03 0.03 41 1017.4
20260831111156 15 222 0.0 0.0 0.00 0.03 0.03 41 1017.4
20260831110151 15 227 0.0 0.0 0.00 0.03 0.03 40 1017.7
20260831105645 15 215 0.0 0.0 0.00 0.03 0.03 40 1017.4
20260831105139 15 215 0.0 0.0 0.00 0.03 0.03 40 1017.4
20260831104633 15 227 0.0 0.0 0.00 0.03 0.03 39 1017.4
20260831104128 15 227 0.0 0.0 0.00 0.03 0.03 38 1017.4
20260831103623 15 227 0.0 0.0 0.00 0.03 0.03 39 1017.4
20260831103117 15 206 0.0 0.0 0.00 0.03 0.03 39 1017.4
20260831102612 16 241 0.0 0.0 0.00 0.03 0.03 39 1017.4
20260831102109 16 241 0.0 0.0 0.00 0.03 0.03 38 1017.4
20260831102104 16 202 0.0 0.0 0.00 0.03 0.03 38 1017.4
20260831101055 16 264 0.0 0.0 0.00 0.03 0.03 37 1017.4
20260831100550 16 16 0.0 0.0 0.00 0.03 0.03 37 1017.4
20260831100044 16 216 0.0 0.0 0.00 0.03 0.03 37 1017.4
20260831095539 16 185 0.0 0.0 0.00 0.03 0.03 37 1017.4
20260831095033 16 245 0.0 0.0 0.00 0.03 0.03 36 1017.4
20260831094527 16 234 0.0 0.0 0.00 0.03 0.03 36 1017.4
20260831094022 16 236 0.0 0.0 0.00 0.03 0.03 36 1017.4
20260831093517 16 287 0.0 0.0 0.00 0.03 0.03 36 1017.0
20260831093011 17 258 0.0 0.0 0.00 0.03 0.03 36 1017.4
20260831092505 17 243 0.0 0.0 0.00 0.03 0.03 35 1017.4
20260831092000 17 208 0.0 0.0 0.00 0.03 0.03 35 1017.4
20260831091454 18 290 0.0 0.0 0.00 0.03 0.03 33 1017.4
20260831090949 18 3 0.0 0.0 0.00 0.03 0.03 33 1017.4
20260831090445 18 243 0.0 0.0 0.00 0.03 0.03 32 1017.4
20260831090440 18 312 0.0 0.0 0.03 0.03 0.03 32 1017.4
20260831085433 18 257 0.0 0.0 0.03 0.03 0.03 29 1017.4
20260831084928 19 225 0.0 0.0 0.03 0.03 0.03 28 1017.4
20260831084423 19 213 0.0 0.0 0.03 0.03 0.03 26 1017.4
20260831084418 19 196 0.0 0.0 0.03 0.03 0.03 26 1017.4
20260831083411 20 227 0.0 0.0 0.03 0.03 0.03 26 1017.4
20260831082905 20 215 0.0 1.6 0.03 0.03 0.03 26 1017.4
20260831082359 20 270 0.0 1.6 0.03 0.03 0.03 26 1017.4
20260831081854 20 256 0.0 0.0 0.03 0.03 0.03 26 1017.4
20260831081849 20 216 0.0 0.0 0.03 0.03 0.03 28 1017.4
20260831080843 20 281 0.0 0.0 0.03 0.03 0.03 27 1017.4
20260831080337 20 267 0.0 0.0 0.03 0.03 0.03 27 1017.7
20260831075831 20 197 0.0 0.0 0.00 0.00 0.00 27 1017.4
20260831075326 21 232 0.0 0.0 0.00 0.00 0.00 27 1017.4
20260831074820 21 245 0.0 0.0 0.00 0.00 0.00 26 1017.4
20260831074314 21 237 0.0 0.0 0.00 0.00 0.00 26 1017.4
20260831073809 21 214 0.0 0.0 0.00 0.00 0.00 24 1017.4
20260831073759 21 207 0.0 3.2 0.00 0.00 0.00 23 1017.4
20260831073403 21 180 0.0 3.2 0.00 0.00 0.00 24 1017.4
20260831072254 21 264 0.0 0.0 0.00 0.00 0.00 22 1017.4
20260831072248 21 176 0.0 0.0 0.00 0.00 0.00 22 1017.4
20260831071247 21 228 0.0 1.6 0.00 0.00 0.00 22 1017.4
20260831070735 21 250 0.0 1.6 0.00 0.00 0.00 21 1017.4
20260831070230 21 237 0.0 0.0 0.00 0.00 0.00 21 1017.4
20260831065724 21 156 0.0 0.0 0.00 0.00 0.00 21 1017.4
20260831065219 20 241 0.0 0.0 0.00 0.00 0.00 21 1017.4
20260831064713 20 231 0.0 0.0 0.00 0.00 0.00 21 1017.4
20260831064704 20 222 0.0 0.0 0.00 0.00 0.00 22 1017.4
20260831064309 20 249 0.0 0.0 0.00 0.00 0.00 22 1017.7
20260831063156 20 268 0.0 0.0 0.00 0.00 0.00 23 1017.7
20260831062651 20 235 0.0 0.0 0.00 0.00 0.00 25 1017.7
20260831062146 20 219 0.0 0.0 0.00 0.00 0.00 25 1017.4
20260831061640 20 225 0.0 0.0 0.00 0.00 0.00 24 1017.7
20260831061135 20 244 0.0 0.0 0.00 0.00 0.00 23 1017.7
20260831060629 20 232 0.0 0.0 0.00 0.00 0.00 23 1017.7
20260831060123 20 226 0.0 0.0 0.00 0.00 0.00 23 1017.7
20260831055619 20 244 0.0 0.0 0.00 0.00 0.00 24 1017.4
20260831055114 20 233 0.0 0.0 0.00 0.00 0.00 23 1017.7
20260831055108 20 235 0.0 0.0 0.00 0.00 0.00 23 1017.7
20260831054101 20 235 0.0 0.0 0.00 0.00 0.00 23 1017.7
20260831053556 20 235 0.0 0.0 0.00 0.00 0.00 23 1017.7
20260831053051 20 238 0.0 0.0 0.00 0.00 0.00 24 1017.7
20260831053037 20 242 0.0 0.0 0.00 0.00 0.00 25 1017.7
20260831052656 20 237 0.0 0.0 0.00 0.00 0.00 25 1017.7
20260831052641 20 226 0.0 0.0 0.00 0.00 0.00 24 1017.7
20260831051028 20 236 0.0 0.0 0.00 0.00 0.00 24 1017.7
20260831050523 21 245 0.0 0.0 0.00 0.00 0.00 24 1017.7
20260831050018 21 242 0.0 0.0 0.00 0.00 0.00 25 1018.0
20260831050012 21 237 0.0 0.0 0.00 0.00 0.00 25 1018.0
20260831045006 21 231 0.0 0.0 0.00 0.00 0.00 22 1018.0
20260831044501 21 242 0.0 0.0 0.00 0.00 0.00 22 1018.0
20260831043955 21 206 0.0 0.0 0.00 0.00 0.00 21 1018.0
20260831043449 22 226 0.0 0.0 0.00 0.00 0.00 21 1018.0
20260831042944 22 228 0.0 0.0 0.00 0.00 0.00 21 1017.7
20260831042439 22 234 0.0 0.0 0.00 0.00 0.00 21 1017.7
20260831041933 22 220 0.0 0.0 0.00 0.00 0.00 20 1017.4
20260831041428 22 232 0.0 0.0 0.00 0.00 0.00 20 1017.7
20260831041423 22 276 0.0 0.0 0.00 0.00 0.00 20 1017.7
20260831040416 22 225 0.0 0.0 0.00 0.00 0.00 19 1017.7
20260831035911 22 290 0.0 0.0 0.00 0.00 0.00 19 1017.7
20260831035405 22 353 0.0 0.0 0.00 0.00 0.00 19 1017.7
20260831034859 22 233 0.0 0.0 0.00 0.00 0.00 19 1017.4
20260831034354 23 245 0.0 0.0 0.00 0.00 0.00 19 1017.7
20260831033849 23 317 0.0 0.0 0.00 0.00 0.00 18 1017.4
20260831033344 23 259 0.0 0.0 0.00 0.00 0.00 18 1017.4
20260831032838 23 228 0.0 1.6 0.00 0.00 0.00 17 1017.4
20260831032332 23 284 0.0 1.6 0.00 0.00 0.00 16 1017.4
20260831031827 24 27 0.0 1.6 0.00 0.00 0.00 16 1017.4
20260831031321 24 283 0.0 1.6 0.00 0.00 0.00 16 1017.4
20260831030816 24 217 0.0 0.0 0.00 0.00 0.00 15 1017.4
20260831030311 25 316 0.0 1.6 0.00 0.00 0.00 13 1017.0
20260831025805 25 225 0.0 1.6 0.00 0.00 0.00 12 1017.0
20260831025259 25 303 0.0 0.0 0.00 0.00 0.00 12 1017.4
20260831024754 25 350 0.0 0.0 0.00 0.00 0.00 12 1017.4
20260831024248 25 258 0.0 0.0 0.00 0.00 0.00 10 1017.0
20260831023742 25 295 0.0 0.0 0.00 0.00 0.00 10 1017.0
20260831023239 26 193 0.0 0.0 0.00 0.00 0.00 10 1017.0
20260831022732 26 313 0.0 0.0 0.00 0.00 0.00 10 1017.0
20260831022226 26 279 0.0 1.6 0.00 0.00 0.00 10 1017.0
20260831021720 27 275 0.0 1.6 0.00 0.00 0.00 10 1017.0
20260831021215 27 208 0.0 0.0 0.00 0.00 0.00 10 1017.0
20260831020710 27 277 0.0 0.0 0.00 0.00 0.00 10 1017.0
20260831020204 27 174 0.0 0.0 0.00 0.00 0.00 10 1016.7
20260831015659 28 144 0.0 0.0 0.00 0.00 0.00 10 1017.0
20260831015153 28 259 0.0 0.0 0.00 0.00 0.00 10 1017.0
20260831014647 28 249 0.0 0.0 0.00 0.00 0.00 12 1016.7
20260831014143 28 218 0.0 1.6 0.00 0.00 0.00 12 1016.7
20260831014138 28 249 0.0 1.6 0.00 0.00 0.00 12 1016.7
20260831013133 28 214 0.0 0.0 0.00 0.00 0.00 12 1016.7
20260831013128 28 236 0.0 0.0 0.00 0.00 0.00 12 1016.7
20260831012120 28 201 0.0 3.2 0.00 0.00 0.00 12 1016.7
20260831011614 28 253 0.0 3.2 0.00 0.00 0.00 12 1016.7
20260831011109 28 304 0.0 1.6 0.00 0.00 0.00 12 1016.7
20260831010603 28 288 0.0 1.6 0.00 0.00 0.00 12 1016.7
20260831010058 28 70 0.0 1.6 0.00 0.00 0.00 12 1016.7
20260831010053 28 278 0.0 0.0 0.00 0.00 0.00 12 1017.0
20260831005046 28 104 0.0 0.0 0.00 0.00 0.00 12 1016.7
20260831004543 28 287 0.0 4.8 0.00 0.00 0.00 12 1017.0
20260831004538 28 306 0.0 4.8 0.00 0.00 0.00 12 1017.0
20260831003530 28 326 0.0 1.6 0.00 0.00 0.00 12 1017.0
20260831003024 28 123 0.0 1.6 0.00 0.00 0.00 12 1017.0
20260831002519 28 41 0.0 1.6 0.00 0.00 0.00 12 1017.0
20260831002014 28 160 0.0 0.0 0.00 0.00 0.00 12 1017.0
20260831001508 28 28 0.0 1.6 0.00 0.00 0.00 11 1017.0
20260831001002 28 257 0.0 3.2 0.00 0.00 0.00 11 1017.4
20260831000457 28 59 0.0 1.6 0.00 0.00 0.00 12 1017.4
20260830235951 28 300 0.0 3.2 0.00 0.00 0.00 12 1017.4
20260830235445 28 228 0.0 3.2 0.00 0.00 0.00 12 1017.4
20260830234940 28 336 0.0 4.8 0.00 0.00 0.00 11 1017.4
20260830234435 28 323 0.0 4.8 0.00 0.00 0.00 12 1017.4
20260830233931 28 330 0.0 3.2 0.00 0.00 0.00 12 1017.4
20260830233925 28 54 0.0 3.2 0.00 0.00 0.00 12 1017.4
20260830232918 29 160 0.0 3.2 0.00 0.00 0.00 11 1017.7
20260830232412 29 279 0.0 0.0 0.00 0.00 0.00 11 1017.4
20260830231907 29 218 0.0 0.0 0.00 0.00 0.00 11 1017.7
20260830231402 29 78 0.0 1.6 0.00 0.00 0.00 11 1017.4
20260830230856 30 324 0.0 1.6 0.00 0.00 0.00 11 1017.4
20260830230350 30 261 0.0 1.6 0.00 0.00 0.00 12 1017.7
20260830225845 30 201 0.0 3.2 0.00 0.00 0.00 11 1017.7
20260830225836 30 335 0.0 4.8 0.00 0.00 0.00 11 1017.7
20260830225440 30 342 0.0 4.8 0.00 0.00 0.00 11 1017.7
20260830224331 30 7 0.0 1.6 0.00 0.00 0.00 10 1017.7
20260830224324 30 100 0.0 1.6 0.00 0.00 0.00 10 1018.0
20260830223318 30 197 0.0 1.6 0.00 0.00 0.00 10 1018.0
20260830223313 30 325 0.0 1.6 0.00 0.00 0.00 10 1018.0
20260830222307 30 77 0.0 1.6 0.00 0.00 0.00 10 1018.0
20260830221801 30 87 0.0 3.2 0.00 0.00 0.00 10 1018.0
20260830221256 30 287 0.0 3.2 0.00 0.00 0.00 10 1018.0
20260830220749 30 104 0.0 4.8 0.00 0.00 0.00 10 1018.4
20260830220244 30 21 0.0 4.8 0.00 0.00 0.00 10 1018.4
20260830215739 29 325 0.0 3.2 0.00 0.00 0.00 10 1018.4
20260830215235 30 308 0.0 3.2 0.00 0.00 0.00 10 1018.4
20260830214729 29 141 0.0 3.2 0.00 0.00 0.00 11 1018.7
20260830214222 29 287 0.0 3.2 0.00 0.00 0.00 11 1018.7
20260830213718 29 122 0.0 1.6 0.00 0.00 0.00 11 1018.7
20260830213712 29 16 0.0 4.8 0.00 0.00 0.00 10 1018.7
20260830212706 29 48 0.0 4.8 0.00 0.00 0.00 10 1019.1
20260830212202 29 284 0.0 1.6 0.00 0.00 0.00 10 1018.7
20260830212157 29 139 0.0 3.2 0.00 0.00 0.00 11 1018.7
20260830211149 29 39 0.0 1.6 0.00 0.00 0.00 11 1019.1
20260830210643 29 142 0.0 3.2 0.00 0.00 0.00 11 1019.1
20260830210138 29 186 0.0 3.2 0.00 0.00 0.00 11 1018.7
20260830205633 29 121 0.0 1.6 0.00 0.00 0.00 12 1019.4
20260830205128 29 356 0.0 0.0 0.00 0.00 0.00 11 1019.1
20260830204621 29 37 0.0 0.0 0.00 0.00 0.00 11 1019.1
20260830204116 29 59 0.0 1.6 0.00 0.00 0.00 10 1019.1
20260830203611 29 10 0.0 1.6 0.00 0.00 0.00 12 1019.1
20260830203105 29 51 0.0 1.6 0.00 0.00 0.00 12 1019.1
20260830202600 29 8 0.0 1.6 0.00 0.00 0.00 11 1019.4
20260830202555 29 312 0.0 3.2 0.00 0.00 0.00 11 1019.4
20260830201549 28 325 0.0 3.2 0.00 0.00 0.00 11 1019.4
20260830201043 28 56 0.0 0.0 0.00 0.00 0.00 11 1019.4
20260830200537 28 223 0.0 1.6 0.00 0.00 0.00 10 1019.4
20260830200032 28 132 0.0 1.6 0.00 0.00 0.00 12 1019.7
20260830195526 28 210 0.0 0.0 0.00 0.00 0.00 12 1019.7
20260830195022 28 357 0.0 0.0 0.00 0.00 0.00 12 1019.4
20260830194517 28 237 0.0 1.6 0.00 0.00 0.00 12 1019.7
20260830194512 27 226 0.0 1.6 0.00 0.00 0.00 11 1020.1
20260830193504 27 150 0.0 1.6 0.00 0.00 0.00 12 1019.7
20260830192959 27 1 0.0 1.6 0.00 0.00 0.00 12 1019.7
20260830192951 27 151 0.0 1.6 0.00 0.00 0.00 12 1020.1
20260830192555 27 65 0.0 0.0 0.00 0.00 0.00 10 1019.7
20260830191443 27 15 0.0 3.2 0.00 0.00 0.00 12 1020.1
20260830190937 27 346 0.0 3.2 0.00 0.00 0.00 12 1019.7
20260830190431 27 309 0.0 0.0 0.00 0.00 0.00 12 1020.1
20260830185927 27 120 0.0 0.0 0.00 0.00 0.00 12 1020.1
20260830185921 27 201 0.0 0.0 0.00 0.00 0.00 10 1020.1
20260830184914 26 133 0.0 0.0 0.00 0.00 0.00 10 1020.1
20260830184409 26 185 0.0 0.0 0.00 0.00 0.00 10 1020.4
20260830183903 26 311 0.0 0.0 0.00 0.00 0.00 10 1020.4
20260830183358 26 266 0.0 0.0 0.00 0.00 0.00 10 1020.7
20260830182853 25 183 0.0 0.0 0.00 0.00 0.00 10 1020.4
20260830182348 25 234 0.0 0.0 0.00 0.00 0.00 11 1020.4
20260830181841 25 193 0.0 0.0 0.00 0.00 0.00 11 1020.1
20260830181336 25 286 0.0 0.0 0.00 0.00 0.00 12 1020.4
20260830180830 25 168 0.0 0.0 0.00 0.00 0.00 12 1020.4
20260830180325 25 224 0.0 0.0 0.00 0.00 0.00 12 1020.4
20260830175819 25 84 0.0 0.0 0.00 0.00 0.00 12 1020.4
20260830175313 25 353 0.0 0.0 0.00 0.00 0.00 13 1020.4
20260830175306 25 150 0.0 1.6 0.00 0.00 0.00 17 1020.1
20260830174909 25 168 0.0 0.0 0.00 0.00 0.00 16 1020.4
20260830173757 25 131 0.0 1.6 0.00 0.00 0.00 16 1020.7
20260830173251 24 210 0.0 0.0 0.00 0.00 0.00 15 1020.4
20260830172745 24 231 0.0 0.0 0.00 0.00 0.00 14 1020.4
20260830172240 24 137 0.0 0.0 0.00 0.00 0.00 15 1020.4
20260830171735 24 144 0.0 0.0 0.00 0.00 0.00 15 1020.4
20260830171231 24 108 0.0 0.0 0.00 0.00 0.00 13 1020.4
20260830170723 24 199 0.0 0.0 0.00 0.00 0.00 13 1020.4